DW4465 Weather Reports


time (UTC)temp
C
wind
direction
speed
KPH
gust
KPH
rain 1hr
cm
rain 24hr
cm
rain mn
cm
humidity
%
barometer
mb
20260901114552 16 0 0.0 0.0 0.00 0.00 0.00 86 1014.0
20260901113050 16 0 0.0 0.0 0.00 0.00 0.00 87 1014.1
20260901111552 16 0 0.0 0.0 0.00 0.00 0.00 86 1014.2
20260901110048 16 0 0.0 0.0 0.00 0.00 0.00 86 1014.3
20260901104553 17 0 0.0 0.0 0.00 0.00 0.00 86 1014.3
20260901103052 17 0 0.0 0.0 0.00 0.00 0.00 86 1014.3
20260901101552 17 0 0.0 0.0 0.00 0.00 0.00 86 1014.4
20260901100047 17 0 0.0 0.0 0.00 0.00 0.00 86 1014.3
20260901094559 17 0 0.0 1.6 0.00 0.00 0.00 86 1014.4
20260901093124 17 0 0.0 1.6 0.00 0.00 0.00 86 1014.5
20260901091600 18 0 0.0 1.6 0.00 0.00 0.00 85 1014.3
20260901090056 18 0 0.0 1.6 0.00 0.00 0.00 85 1014.3
20260901084557 18 0 0.0 1.6 0.00 0.00 0.00 85 1014.3
20260901083049 18 0 0.0 0.0 0.00 0.00 0.00 84 1014.4
20260901081546 18 0 0.0 0.0 0.00 0.00 0.00 84 1014.6
20260901080049 18 0 0.0 0.0 0.00 0.00 0.00 84 1014.5
20260901074545 18 0 0.0 0.0 0.00 0.00 0.00 84 1014.7
20260901073050 18 0 0.0 1.6 0.00 0.00 0.00 83 1014.7
20260901071548 18 0 0.0 1.6 0.00 0.00 0.00 83 1014.6
20260901070055 19 0 0.0 0.0 0.00 0.00 0.00 82 1014.7
20260901064554 19 0 0.0 0.0 0.00 0.00 0.00 82 1014.6
20260901063048 19 0 0.0 0.0 0.00 0.00 0.00 82 1014.3
20260901061548 20 0 0.0 1.6 0.00 0.00 0.00 82 1014.2
20260901060058 20 0 0.0 1.6 0.00 0.00 0.00 81 1014.2
20260901054553 20 0 0.0 3.2 0.00 0.00 0.00 81 1014.2
20260901053105 20 0 0.0 1.6 0.00 0.00 0.00 80 1014.1
20260901051544 20 236 0.0 1.6 0.00 0.00 0.00 79 1014.0
20260901050052 20 0 0.0 1.6 0.00 0.00 0.00 79 1013.8
20260901044552 20 0 0.0 3.2 0.00 0.00 0.00 78 1013.8
20260901043115 20 265 0.0 3.2 0.00 0.00 0.00 78 1013.6
20260901041557 21 243 0.0 4.8 0.00 0.00 0.00 77 1013.6
20260901040053 21 0 0.0 6.4 0.00 0.00 0.00 77 1013.3
20260901034601 21 297 0.0 4.8 0.00 0.00 0.00 76 1013.1
20260901033059 21 0 0.0 6.4 0.00 0.00 0.00 75 1013.0
20260901031545 21 0 0.0 6.4 0.00 0.00 0.00 74 1012.8
20260901030050 21 0 1.6 6.4 0.00 0.00 0.00 74 1012.5
20260901024554 22 279 1.6 8.0 0.00 0.00 0.00 72 1012.5
20260901023048 22 17 3.2 9.7 0.00 0.00 0.00 71 1012.2
20260901021545 23 302 4.8 9.7 0.00 0.00 0.00 69 1012.3
20260901020043 23 313 3.2 11.3 0.00 0.00 0.00 67 1012.3
20260901014550 23 0 0.0 6.4 0.00 0.00 0.00 65 1012.2
20260901013047 24 5 4.8 14.5 0.00 0.00 0.00 63 1012.3
20260901011554 25 324 3.2 12.9 0.00 0.00 0.00 62 1012.1
20260901010100 26 329 3.2 11.3 0.00 0.00 0.00 60 1012.2
20260901004552 27 287 3.2 11.3 0.00 0.00 0.00 58 1012.2
20260901003055 27 307 1.6 14.5 0.00 0.00 0.00 57 1012.2
20260901001545 27 199 6.4 14.5 0.00 0.00 0.00 54 1012.2
20260901000055 26 209 9.7 19.3 0.00 0.00 0.00 54 1012.4
20260831234549 27 173 11.3 25.7 0.00 0.00 0.00 56 1012.3
20260831233049 27 172 9.7 20.9 0.00 0.00 0.00 52 1012.4
20260831231546 27 197 9.7 19.3 0.00 0.00 0.00 51 1012.3
20260831224550 28 165 4.8 17.7 0.00 0.00 0.00 51 1012.4
20260831223048 27 193 8.0 16.1 0.00 0.00 0.00 56 1012.5
20260831221547 27 169 8.0 17.7 0.00 0.00 0.00 56 1012.8
20260831220054 27 169 8.0 16.1 0.00 0.00 0.00 59 1012.9
20260831214549 27 198 6.4 14.5 0.00 0.00 0.00 58 1013.0
20260831213048 27 196 8.0 17.7 0.00 0.00 0.00 60 1013.3
20260831211554 27 198 8.0 14.5 0.00 0.00 0.00 61 1013.4
20260831210049 27 154 9.7 17.7 0.00 0.00 0.00 61 1013.4
20260831204555 27 202 4.8 16.1 0.00 0.00 0.00 61 1013.4
20260831203059 27 185 3.2 17.7 0.00 0.00 0.00 63 1013.4
20260831201547 27 216 3.2 16.1 0.00 0.00 0.00 63 1013.6
20260831200051 27 151 6.4 14.5 0.00 0.00 0.00 63 1013.6
20260831194549 27 191 6.4 14.5 0.00 0.00 0.00 64 1013.6
20260831193051 27 223 4.8 17.7 0.00 0.00 0.00 65 1013.8
20260831191547 27 180 6.4 16.1 0.00 0.00 0.00 63 1013.8
20260831190056 27 203 4.8 16.1 0.00 0.00 0.00 63 1013.9
20260831184551 27 176 3.2 9.7 0.00 0.00 0.00 63 1014.1
20260831183046 27 198 1.6 12.9 0.00 0.00 0.00 64 1014.0
20260831181554 27 185 3.2 14.5 0.00 0.00 0.00 66 1014.1
20260831180044 27 156 4.8 14.5 0.00 0.00 0.00 65 1013.9
20260831174552 27 167 3.2 8.0 0.00 0.00 0.00 65 1014.0
20260831173057 26 194 3.2 11.3 0.00 0.00 0.00 68 1014.0
20260831171544 25 212 1.6 6.4 0.00 0.00 0.00 71 1013.9
20260831170052 25 142 3.2 8.0 0.00 0.00 0.00 75 1013.8
20260831164549 23 333 0.0 4.8 0.00 0.00 0.00 78 1013.8
20260831163048 23 0 0.0 4.8 0.00 0.00 0.00 81 1013.7
20260831161603 22 187 1.6 6.4 0.00 0.00 0.00 83 1013.7
20260831160117 22 196 3.2 6.4 0.00 0.00 0.00 84 1013.7
20260831154618 22 186 0.0 4.8 0.00 0.00 0.00 85 1013.6
20260831153123 21 215 0.0 3.2 0.00 0.00 0.00 86 1013.6
20260831151558 21 0 0.0 1.6 0.00 0.00 0.00 86 1013.4
20260831150053 20 0 0.0 1.6 0.00 0.00 0.00 86 1013.5
20260831144549 20 0 0.0 1.6 0.00 0.00 0.00 86 1013.3
20260831143050 20 0 0.0 0.0 0.00 0.00 0.00 86 1013.2
20260831141557 19 0 0.0 1.6 0.00 0.00 0.00 85 1012.9
20260831140052 19 0 0.0 1.6 0.00 0.00 0.00 85 1012.9
20260831134548 18 0 0.0 0.0 0.00 0.00 0.00 85 1012.7
20260831133047 18 0 0.0 0.0 0.00 0.00 0.00 84 1012.6
20260831131550 19 0 0.0 0.0 0.00 0.00 0.00 84 1012.4
20260831130059 19 0 0.0 0.0 0.00 0.00 0.00 84 1012.4
20260831124553 19 0 0.0 0.0 0.00 0.00 0.00 84 1012.2
20260831123051 19 0 0.0 0.0 0.00 0.00 0.00 83 1012.1
20260831121549 19 0 0.0 0.0 0.00 0.00 0.00 83 1012.2
20260831120139 18 0 0.0 0.0 0.00 0.00 0.00 82 1012.1